Location: Elliott Corner
(37.4627°N, 119.7746°W)
Time: 20:18:28
(UTC+00:00)

Cosmos 468 Rocket - Pass Details

Date: 10 September 2024
Orbit: 741 x 776 km, 74.0° (Epoch: 10 October)

Event Time Altitude Azimuth Distance (km) Brightness Sun altitude
Rises 12:17:18 0° 341° (NNW) 3,220 7.2 -16.3°
Reaches altitude 10° 12:19:39 10° 342° (NNW) 2,297 6.5 -15.9°
Maximum altitude 12:24:53 89° 63° (ENE) 771 4.0 -14.9°
Drops below altitude 10° 12:30:08 10° 163° (SSE) 2,305 6.5 -13.9°
Sets 12:32:30 0° 164° (SSE) 3,232 7.2 -13.4°
